University AP, Davis, CA, CA

3:06 AM PST on December 06, 2019 (GMT -0800)
University AP, Davis, CA

Weather History for KEDU - October, 2019

Change the Weather History Date:

Monday, October 7, 2019

  Actual Average (WUND) Record (WUND)
Temperature  
Mean Temperature 70 °F -  
Max Temperature 87 °F - - (-1)
Min Temperature 53 °F - - (-1)
Cooling Degree Days 5    
Growing Degree Days 20 (Base 50)    
Moisture  
Dew Point 40 °F    
Average Humidity 40    
Maximum Humidity 59    
Minimum Humidity 14    
Precipitation  
Precipitation 0.00 in - - ()
Sea Level Pressure  
Sea Level Pressure 29.95 in    
Wind  
Wind Speed 2 mph ()    
Max Wind Speed 10 mph    
Max Gust Speed -    
Visibility 9.9 miles    
Events      
Averages and records for this station are not official NWS values.
T = Trace of Precipitation, MM = Missing Value Source: Averaged Metar Reports

Daily Weather History Graph

Daily Weather History Graph

Search for Another Location

Airport or City:

Astronomy

Oct. 07, 2019 Rise Set
Actual Time 7:08 AM PDT 6:40 PM PDT
Civil Twilight 6:41 AM PDT 7:07 PM PDT
Nautical Twilight 6:11 AM PDT 7:38 PM PDT
Astronomical Twilight 5:40 AM PDT 8:08 PM PDT
Moon 4:01 PM PDT (10/7) 1:11 AM PDT (10/7)
Length of Visible Light 12h 25m
Length of Day
11h 32m
Waxing Gibbous, 70% of the Moon is Illuminated
Oct 7
Waxing Gibbous
Oct 13
Full
Oct 21
Last Quarter
Oct 27
New
Nov 4
First Quarter

Hourly Weather History & Observations

Time (PDT) Temp. Dew Point Humidity Pressure Visibility Wind Dir Wind Speed Gust Speed Precip Events Conditions
12:20 AM 57.2 °F 41.0 °F 55% 29.99 in 10.0 mi Calm Calm - N/A   Clear
12:35 AM 57.2 °F 39.2 °F 51% 29.99 in 10.0 mi Calm Calm - N/A   Clear
1:00 AM 57.2 °F 39.2 °F 51% 29.99 in 10.0 mi Calm Calm - N/A   Clear
1:20 AM 57.2 °F 37.4 °F 48% 29.99 in 10.0 mi Calm Calm - N/A   Clear
1:40 AM 59.0 °F 39.2 °F 48% 29.99 in 10.0 mi North 3.5 mph - N/A   Clear
2:00 AM 59.0 °F 37.4 °F 45% 30.00 in 10.0 mi Calm Calm - N/A   Clear
2:20 AM 59.0 °F 37.4 °F 45% 30.00 in 10.0 mi Calm Calm - N/A   Clear
2:40 AM 57.2 °F 37.4 °F 48% 29.99 in 10.0 mi Calm Calm - N/A   Clear
3:00 AM 53.6 °F 39.2 °F 58% 29.99 in 10.0 mi Calm Calm - N/A   Clear
3:20 AM 55.4 °F 37.4 °F 51% 29.99 in 10.0 mi WNW 3.5 mph - N/A   Clear
3:35 AM 55.4 °F 37.4 °F 51% 29.99 in 10.0 mi Calm Calm - N/A   Clear
4:00 AM 55.4 °F 37.4 °F 51% 29.98 in 10.0 mi Calm Calm - N/A   Clear
4:15 AM 53.6 °F 37.4 °F 54% 29.98 in 10.0 mi Calm Calm - N/A   Clear
4:35 AM 55.4 °F 37.4 °F 51% 29.98 in 10.0 mi Calm Calm - N/A   Clear
5:00 AM 55.4 °F 37.4 °F 51% 29.98 in 10.0 mi Calm Calm - N/A   Clear
5:20 AM 57.2 °F 37.4 °F 48% 29.98 in 10.0 mi Calm Calm - N/A   Clear
5:40 AM 55.4 °F 37.4 °F 51% 29.99 in 10.0 mi Calm Calm - N/A   Clear
6:00 AM 55.4 °F 37.4 °F 51% 29.99 in 10.0 mi Calm Calm - N/A   Clear
6:20 AM 57.2 °F 37.4 °F 48% 29.99 in 10.0 mi North 3.5 mph - N/A   Clear
6:40 AM 53.6 °F 37.4 °F 54% 29.99 in 10.0 mi Calm Calm - N/A   Clear
7:00 AM 53.6 °F 37.4 °F 54% 30.00 in 10.0 mi Calm Calm - N/A   Clear
7:20 AM 55.4 °F 37.4 °F 51% 30.00 in 10.0 mi North 3.5 mph - N/A   Clear
7:40 AM 55.4 °F 37.4 °F 51% 30.00 in 10.0 mi Calm Calm - N/A   Clear
8:00 AM 55.4 °F 39.2 °F 54% 30.00 in 10.0 mi North 3.5 mph - N/A   Clear
8:20 AM 55.4 °F 39.2 °F 54% 30.01 in 10.0 mi North 4.6 mph - N/A   Clear
8:40 AM 57.2 °F 39.2 °F 51% 30.01 in 10.0 mi North 5.8 mph - N/A   Clear
8:55 AM 59.0 °F 37.4 °F 45% 30.02 in 10.0 mi North 5.8 mph - N/A   Clear
9:20 AM 62.6 °F 37.4 °F 39% 30.02 in 10.0 mi North 5.8 mph - N/A   Clear
9:35 AM 60.8 °F 37.4 °F 42% 30.02 in 10.0 mi North 4.6 mph - N/A   Clear
9:55 AM 62.6 °F 37.4 °F 39% 30.02 in 6.0 mi NNE 6.9 mph - N/A   Clear
10:20 AM 66.2 °F 39.2 °F 37% 30.02 in 9.0 mi NNE 6.9 mph - N/A   Clear
10:40 AM 71.6 °F 37.4 °F 29% 30.02 in 10.0 mi North 6.9 mph - N/A   Clear
11:00 AM 73.4 °F 37.4 °F 27% 30.01 in 10.0 mi North 10.4 mph - N/A   Clear
11:20 AM 75.2 °F 37.4 °F 25% 30.01 in 10.0 mi North 6.9 mph - N/A   Clear
11:35 AM 75.2 °F 37.4 °F 25% 30.00 in 10.0 mi NNE 9.2 mph - N/A   Clear
12:00 PM 77.0 °F 39.2 °F 26% 30.00 in 10.0 mi North 5.8 mph - N/A   Clear
12:20 PM 78.8 °F 37.4 °F 23% 29.99 in 10.0 mi North 6.9 mph - N/A   Clear
12:40 PM 80.6 °F 37.4 °F 21% 29.98 in 10.0 mi North 6.9 mph - N/A   Clear
1:00 PM 80.6 °F 37.4 °F 21% 29.98 in 10.0 mi NNW 5.8 mph - N/A   Clear
1:15 PM 82.4 °F 39.2 °F 21% 29.97 in 10.0 mi NE 5.8 mph - N/A   Clear
1:40 PM 82.4 °F 39.2 °F 21% 29.95 in 10.0 mi NNE 5.8 mph - N/A   Clear
2:00 PM 84.2 °F 37.4 °F 19% 29.94 in 10.0 mi NNW 4.6 mph - N/A   Clear
2:20 PM 84.2 °F 39.2 °F 20% 29.93 in 10.0 mi NNE 4.6 mph - N/A   Clear
2:40 PM 84.2 °F 37.4 °F 19% 29.92 in 10.0 mi NNW 3.5 mph - N/A   Clear
3:00 PM 86.0 °F 37.4 °F 18% 29.92 in 10.0 mi Calm Calm - N/A   Clear
3:20 PM 86.0 °F 35.6 °F 17% 29.91 in 10.0 mi Calm Calm - N/A   Clear
3:35 PM 86.0 °F 32.0 °F 14% 29.91 in 10.0 mi Calm Calm - N/A   Clear
4:00 PM 86.0 °F 35.6 °F 17% 29.91 in 9.0 mi NNE 3.5 mph - N/A   Clear
4:20 PM 86.0 °F 35.6 °F 17% 29.90 in 10.0 mi Calm Calm - N/A   Clear
4:40 PM 87.8 °F 35.6 °F 16% 29.89 in 10.0 mi Calm Calm - N/A   Clear
5:40 PM 86.0 °F 37.4 °F 18% 29.87 in 10.0 mi Calm Calm - N/A   Clear
6:00 PM 86.0 °F 39.2 °F 19% 29.87 in 10.0 mi Calm Calm - N/A   Clear
6:20 PM 82.4 °F 44.6 °F 26% 29.87 in 10.0 mi Calm Calm - N/A   Clear
6:40 PM 78.8 °F 48.2 °F 34% 29.87 in 10.0 mi Calm Calm - N/A   Clear
7:00 PM 77.0 °F 44.6 °F 32% 29.87 in 10.0 mi Calm Calm - N/A   Clear
7:20 PM 73.4 °F 44.6 °F 36% 29.87 in 10.0 mi Calm Calm - N/A   Clear
7:40 PM 71.6 °F 46.4 °F 41% 29.87 in 10.0 mi Calm Calm - N/A   Clear
8:00 PM 68.0 °F 46.4 °F 46% 29.88 in 10.0 mi North - - N/A   Clear
8:20 PM 68.0 °F 46.4 °F 46% 29.88 in 10.0 mi Calm Calm - N/A   Clear
8:40 PM 68.0 °F 46.4 °F 46% 29.88 in 10.0 mi Calm Calm - N/A   Clear
9:00 PM 66.2 °F 46.4 °F 49% 29.88 in 10.0 mi Calm Calm - N/A   Clear
9:15 PM 66.2 °F 44.6 °F 46% 29.88 in 10.0 mi Calm Calm - N/A   Clear
9:40 PM 64.4 °F 44.6 °F 49% 29.88 in 10.0 mi Calm Calm - N/A   Clear
10:00 PM 64.4 °F 44.6 °F 49% 29.88 in 10.0 mi Calm Calm - N/A   Clear
10:20 PM 64.4 °F 44.6 °F 49% 29.88 in 10.0 mi Calm Calm - N/A   Clear
10:40 PM 62.6 °F 44.6 °F 52% 29.88 in 10.0 mi Calm Calm - N/A   Clear
11:00 PM 62.6 °F 44.6 °F 52% 29.88 in 10.0 mi Calm Calm - N/A   Clear
11:20 PM 60.8 °F 44.6 °F 55% 29.88 in 10.0 mi Calm Calm - N/A   Clear
11:40 PM 59.0 °F 44.6 °F 59% 29.88 in 10.0 mi Calm Calm - N/A   Clear